Theta_e
349 349 349 348 343 341 341 341 340 336 336 333 329 331 330 323 318 318 317 317 320 322 324 328 331 334 339 341 341 342 342 341 342 342 343 343 343 343 343 343 344 344 343 343 342 341 340 339 340 340 340 340 340 339 339 340 339 339 340 340 339 338 337 335 334 332 330 330 334 335 335 335 332 331 331 330 330 330 331 331 331 332 332 331 332
349 348 348 348 345 342 341 342 339 336 337 333 330 332 329 322 318 317 316 317 322 325 328 331 333 337 340 340 341 342 342 342 342 343 343 343 343 343 343 343 344 343 343 342 341 341 340 339 340 340 340 339 338 338 338 338 338 338 338 338 337 335 333 331 329 328 327 329 333 334 334 333 333 332 332 332 332 331 331 332 332 334 334 332 332
348 348 347 348 346 343 342 342 338 337 337 333 331 332 328 322 319 317 316 318 326 330 331 333 336 340 340 341 342 342 343 343 342 342 343 343 343 343 343 343 343 343 342 341 341 341 340 339 338 339 339 337 338 338 337 337 337 337 336 336 335 333 332 330 326 325 325 327 331 332 332 332 332 332 332 333 333 332 330 331 332 333 333 333 332
348 347 347 349 347 344 342 341 338 338 337 333 331 333 328 322 320 317 316 321 330 333 334 336 338 341 341 342 342 343 343 342 342 342 343 343 343 343 342 342 342 342 342 341 340 341 340 339 337 337 337 336 337 337 337 336 336 336 336 335 335 333 333 332 330 329 327 329 332 332 333 333 332 331 331 332 333 332 331 332 332 332 332 332 332
347 347 348 348 347 345 342 341 339 338 337 334 332 333 328 323 321 317 318 324 332 334 336 339 340 342 342 342 342 343 342 342 342 342 342 342 343 342 342 342 342 341 342 341 340 340 340 339 336 334 336 335 334 335 336 335 336 336 336 336 336 335 335 334 332 332 330 331 334 334 334 334 334 333 332 331 331 332 332 332 331 331 331 331 332
347 347 348 347 347 345 343 342 340 339 337 333 333 333 328 324 321 318 320 327 333 336 339 340 341 342 341 342 342 342 342 342 342 342 342 341 342 342 342 341 341 341 341 340 340 339 339 339 336 333 334 333 332 333 334 334 335 335 336 336 336 337 337 337 334 332 330 331 334 335 335 335 335 334 331 329 329 330 330 330 330 330 331 333 333
347 346 347 347 347 345 343 342 341 340 337 334 334 334 330 325 321 320 321 328 335 338 339 340 341 341 341 341 342 342 342 342 342 342 342 341 341 341 341 340 340 340 340 340 339 339 338 336 335 333 333 334 333 332 333 333 333 333 333 334 335 336 336 337 337 334 330 330 333 335 336 335 335 334 331 330 329 329 329 330 330 330 331 333 333
346 346 346 346 345 344 343 342 341 340 337 335 335 335 332 326 322 320 322 328 335 338 339 340 341 342 341 341 342 342 342 342 341 341 341 341 340 339 339 339 340 340 340 339 338 338 335 333 331 329 328 330 332 332 333 333 332 330 329 330 331 332 333 334 336 335 331 329 332 334 335 334 333 332 330 330 331 330 331 331 330 330 331 331 331
346 346 344 343 343 343 342 342 342 339 337 335 335 336 333 328 322 321 323 328 334 339 339 340 341 342 342 341 342 342 342 342 341 341 340 340 339 338 337 337 338 339 337 335 335 333 330 327 324 321 319 321 324 327 329 329 329 328 327 328 329 331 333 332 334 334 331 330 332 334 335 334 332 331 330 330 330 330 329 329 330 330 329 328 329
345 343 341 340 341 342 342 342 341 339 337 336 336 336 335 328 322 323 325 328 335 338 340 341 341 341 341 342 342 342 342 342 341 341 340 339 338 337 336 334 335 336 336 333 332 329 324 321 319 318 316 315 317 319 323 324 325 326 328 330 332 334 334 333 333 333 331 330 332 334 333 332 331 331 331 331 331 330 329 329 330 330 329 328 328
341 340 338 339 341 341 342 342 340 339 337 337 337 336 335 327 323 324 325 330 337 339 340 341 341 341 341 341 341 341 342 342 341 341 340 339 337 336 335 333 331 333 334 333 331 327 322 319 319 317 315 315 317 319 321 324 326 328 330 332 333 334 334 333 333 333 332 331 331 332 332 331 331 330 331 331 331 330 331 331 331 330 329 327 327
340 340 341 342 343 343 343 342 340 339 338 338 337 337 334 327 323 323 325 332 338 340 340 340 340 340 341 341 340 341 342 341 341 340 340 339 337 336 334 332 329 329 332 332 329 326 322 319 318 316 317 320 322 323 324 327 329 331 332 333 334 334 333 333 332 333 332 330 330 331 331 330 330 330 330 331 330 330 331 331 330 329 327 327 328
344 344 344 344 343 343 342 341 340 339 339 338 338 337 333 327 323 323 327 333 337 338 339 339 339 339 340 341 341 341 341 340 340 340 339 338 337 335 332 330 328 328 332 332 330 328 324 319 316 318 322 326 326 327 328 329 331 331 333 334 334 333 333 332 332 332 331 330 330 329 329 330 330 330 329 329 330 330 330 329 328 327 326 327 328
344 344 343 342 342 342 341 340 340 339 339 339 338 335 331 326 322 323 330 335 336 337 337 338 339 338 339 340 341 340 340 339 339 339 339 338 336 333 331 329 328 328 331 332 332 331 326 319 316 318 325 328 328 328 329 331 331 332 333 335 335 333 332 332 331 330 329 328 329 329 330 330 331 330 330 330 330 329 328 327 327 327 326 326 326
341 341 341 341 341 341 341 340 340 340 339 337 335 332 328 325 323 325 333 336 336 336 336 337 338 338 339 339 339 339 339 338 338 338 338 337 335 333 330 329 328 329 330 332 332 329 323 318 315 318 325 328 328 329 330 331 331 332 334 335 335 333 332 332 331 330 328 327 328 329 330 330 330 330 330 330 329 328 327 327 328 327 325 326 326
339 338 341 342 342 342 341 340 339 338 336 333 330 327 325 326 325 327 333 337 336 336 335 336 337 337 338 339 338 338 338 338 338 337 337 336 334 332 329 329 328 329 331 330 330 327 321 317 314 316 323 327 329 330 331 331 332 333 334 335 334 333 332 332 331 330 327 327 328 328 329 330 330 330 330 330 329 328 328 328 329 327 325 326 326
340 339 342 342 342 341 340 339 338 336 332 329 328 327 328 329 328 327 331 334 335 335 335 335 336 337 338 338 337 336 335 337 337 336 335 334 334 332 329 328 328 329 330 329 328 327 320 315 314 315 322 327 330 331 331 332 332 333 334 334 334 333 332 332 331 329 327 326 327 328 329 330 330 330 330 330 330 329 329 329 327 326 325 326 326
341 342 342 342 341 340 339 339 338 336 333 332 331 330 331 332 330 328 329 331 331 332 333 335 335 336 336 337 336 335 334 335 334 333 333 333 334 332 329 328 328 328 329 328 328 327 320 314 313 315 322 328 330 331 331 332 332 333 333 334 333 333 332 331 331 329 327 325 325 327 329 329 330 330 330 330 329 328 328 327 326 326 326 326 325
342 342 341 341 340 339 339 338 337 337 335 334 334 333 334 333 331 330 329 328 328 327 331 333 334 335 335 336 336 336 334 333 331 331 332 333 334 333 330 328 329 328 328 328 328 328 320 312 313 315 323 329 330 331 332 332 332 333 333 333 333 332 332 332 331 331 328 326 324 326 328 329 329 330 329 329 328 327 327 326 326 326 325 325 325
341 340 339 339 339 338 338 337 337 336 335 334 334 334 335 333 332 331 329 329 329 329 330 331 332 334 335 336 336 336 334 332 331 331 332 332 333 333 331 329 329 329 328 328 328 329 321 312 312 315 323 329 330 331 332 332 333 333 333 333 333 332 332 332 332 331 329 328 326 325 327 329 329 329 329 328 327 327 326 325 325 324 324 325 325
340 339 337 337 337 337 337 337 337 337 335 334 333 334 335 335 333 332 331 332 333 333 333 331 331 333 335 335 334 333 331 331 330 329 330 330 332 333 332 329 328 329 329 329 328 329 322 312 311 314 322 329 330 331 332 332 334 333 333 332 333 333 332 332 332 331 328 327 325 325 326 328 329 329 328 328 328 327 325 324 324 324 324 325 324
341 340 338 337 338 337 336 336 337 337 334 333 333 334 336 335 334 334 334 334 335 335 335 334 333 333 334 333 332 331 330 329 328 326 325 328 330 332 332 329 328 329 329 329 329 328 322 313 311 313 320 328 330 332 333 333 334 333 333 333 332 332 332 332 331 330 328 325 324 325 327 329 329 328 327 328 328 326 325 324 324 324 325 325 324
341 341 340 338 337 335 334 335 336 335 332 333 334 335 336 334 334 335 335 334 334 334 335 336 334 334 333 333 332 333 332 331 331 328 325 325 328 331 332 330 328 328 329 329 329 328 321 312 311 313 318 327 331 331 332 332 332 333 333 333 333 332 332 331 330 329 328 324 322 324 328 329 328 328 328 328 327 326 325 325 325 325 325 325 324
341 340 340 338 337 336 335 336 336 333 330 331 334 335 335 333 333 334 335 335 334 334 334 335 335 334 334 334 335 337 336 334 335 334 331 328 327 328 330 331 330 328 329 329 329 328 323 315 312 317 322 327 331 331 331 330 329 331 332 333 333 332 332 331 330 329 328 324 321 324 328 328 328 328 327 327 326 326 325 325 325 325 325 325 324
341 341 340 339 339 339 338 338 338 335 330 329 332 334 334 334 334 334 335 334 334 334 334 334 335 334 333 335 337 339 339 337 336 336 335 334 331 327 325 328 329 328 328 328 330 328 327 322 316 322 329 329 330 329 329 330 329 330 331 332 333 333 332 331 330 329 328 324 322 324 327 327 328 327 327 326 326 325 325 325 325 324 324 324 324
342 342 341 340 341 341 340 340 340 338 332 328 330 333 334 334 334 334 334 333 332 333 334 334 335 334 332 334 336 339 339 338 337 336 337 337 335 333 328 324 326 328 328 327 330 329 328 328 323 324 328 327 327 328 330 332 331 331 331 331 332 333 332 331 330 329 328 327 324 323 325 326 327 327 326 326 326 325 325 326 325 324 324 324 324
343 343 342 341 342 342 341 341 341 341 334 328 330 333 334 334 335 335 334 332 330 330 333 334 335 335 334 334 336 338 339 339 338 337 337 338 337 336 331 322 322 328 328 327 328 329 329 329 329 328 327 327 329 331 333 334 333 333 333 332 332 333 332 331 330 330 329 328 325 323 324 324 326 327 327 326 326 326 326 326 325 325 324 324 324
344 344 344 343 342 342 341 341 341 341 337 330 331 334 334 334 335 334 333 332 329 328 331 333 335 335 335 335 336 337 339 339 338 337 337 338 338 337 331 321 320 326 328 328 328 329 330 329 329 330 330 331 332 334 334 334 334 334 335 334 333 332 332 331 331 331 329 328 326 322 322 323 325 327 327 327 326 326 326 326 325 325 325 324 325
343 344 344 343 342 342 342 341 341 341 339 334 335 336 335 334 335 335 334 333 331 330 331 333 334 335 336 336 337 337 339 339 339 338 338 337 337 337 334 325 320 326 329 328 328 329 331 331 330 330 330 331 332 333 333 334 334 334 334 334 333 332 332 331 331 331 329 329 326 321 320 322 325 327 327 327 326 326 326 326 325 324 325 325 325
343 343 343 343 343 342 342 341 341 341 341 338 337 339 338 337 337 337 337 336 335 335 335 335 335 336 336 337 338 338 338 339 339 338 338 338 337 337 336 332 324 325 328 328 328 329 331 334 334 333 331 331 333 334 334 334 334 333 333 332 333 332 332 332 331 331 330 330 327 323 321 321 322 325 326 327 326 326 326 325 324 324 324 324 324
343 343 343 343 343 343 342 342 341 341 341 340 339 339 339 339 339 338 338 338 338 338 338 337 337 337 337 337 338 339 339 339 338 338 338 337 338 337 337 336 331 326 326 327 328 329 332 334 335 335 334 334 334 335 335 334 334 333 333 333 333 333 332 332 332 331 330 330 328 326 323 320 320 322 323 325 326 326 326 325 325 325 325 322 322
343 343 343 343 343 343 342 342 341 341 341 341 340 340 338 339 340 340 340 339 339 339 338 338 338 338 338 338 338 338 339 338 338 338 338 338 338 337 336 337 336 332 327 326 328 330 332 333 334 335 335 335 335 335 335 335 334 333 333 332 332 332 332 332 332 331 331 331 330 328 323 319 320 321 323 325 327 327 326 327 327 326 325 322 320
343 343 343 343 343 342 342 341 341 341 341 341 341 341 339 339 340 340 340 339 339 339 338 338 338 338 338 338 339 338 338 338 338 338 338 338 337 337 337 336 337 336 333 330 330 331 331 331 332 334 335 335 335 335 335 335 335 333 333 333 331 331 332 332 331 331 331 331 331 328 321 316 317 320 324 326 326 327 328 328 327 325 323 320 316
342 343 343 342 342 342 341 341 341 341 341 341 340 340 340 340 339 339 339 338 338 338 338 338 338 338 338 338 338 338 338 338 337 337 337 337 337 336 336 336 336 336 335 334 333 332 331 331 332 334 335 335 335 335 335 336 335 333 332 332 331 331 331 331 331 331 331 331 331 327 318 313 312 314 320 324 325 327 329 329 327 325 322 317 311
342 342 342 341 341 341 340 340 341 341 340 340 339 339 339 339 338 338 338 338 339 338 338 338 338 338 338 338 338 338 338 337 337 337 337 337 336 336 336 336 336 335 335 335 335 334 332 331 332 334 334 334 335 335 335 335 335 332 331 332 332 331 331 331 331 331 331 330 330 326 319 313 309 310 315 322 325 328 329 328 325 322 320 315 311
342 342 342 341 341 341 341 339 340 340 339 339 338 338 339 338 338 338 338 339 338 337 338 338 339 338 338 338 339 339 338 337 336 336 337 337 336 336 335 336 336 335 335 335 335 334 333 332 332 332 333 334 335 336 335 334 334 331 331 332 332 331 331 331 331 330 330 330 329 326 322 317 311 310 315 321 324 327 328 326 324 324 323 316 315
342 342 341 341 341 341 341 339 339 340 339 339 339 340 340 340 340 340 340 340 339 337 338 339 340 339 339 339 338 339 339 338 337 336 336 336 336 335 335 336 336 336 335 335 334 334 334 334 333 333 333 335 335 335 335 334 333 332 332 333 332 332 332 331 331 330 330 330 328 326 324 322 317 313 317 321 323 326 327 325 327 329 328 322 321
343 342 342 342 342 342 341 340 339 340 340 340 340 340 341 341 341 341 340 340 340 339 340 340 339 339 340 339 339 339 339 339 338 337 336 336 336 336 336 336 336 336 336 335 334 334 334 334 334 334 334 335 335 335 334 333 332 332 332 332 333 333 332 332 331 330 329 329 327 326 326 326 323 318 320 322 322 324 325 324 327 331 331 328 326
342 342 342 342 343 343 341 339 338 340 340 340 340 340 339 340 340 340 339 339 339 340 340 339 338 338 339 338 338 338 338 338 338 338 337 337 337 337 337 337 336 335 336 335 335 334 334 334 334 335 335 335 335 335 334 333 332 333 333 333 333 332 332 332 332 330 329 329 327 325 326 327 327 324 322 324 324 324 324 324 327 330 331 330 329
340 341 341 341 341 341 340 339 339 339 339 339 339 339 338 339 339 339 338 338 338 338 338 337 337 337 337 336 337 337 338 337 337 337 337 337 338 337 337 336 336 336 335 335 335 334 333 333 335 335 335 335 335 335 334 333 333 333 333 333 333 332 332 332 332 331 330 329 327 325 326 328 329 328 326 327 327 326 326 326 328 330 330 330 330
338 340 340 340 340 340 339 339 339 339 339 339 339 339 339 339 338 338 338 337 337 337 337 337 337 337 336 335 336 337 337 337 337 337 337 337 337 338 337 336 336 336 336 335 334 334 333 334 335 335 335 335 335 335 335 334 333 332 332 332 332 332 332 332 332 332 331 330 328 327 327 327 329 330 330 330 330 329 328 327 328 329 330 330 330
335 337 337 338 339 338 339 339 339 339 339 339 339 339 339 338 337 337 338 338 337 336 337 337 337 336 336 336 336 336 336 337 337 336 337 337 337 337 336 336 336 336 336 336 335 334 334 334 335 335 335 335 335 335 334 334 333 332 332 332 332 332 331 331 331 332 332 331 330 330 330 329 329 330 330 330 331 331 330 329 328 328 329 329 329
332 334 334 335 337 337 337 337 337 337 338 338 338 339 339 339 338 337 336 337 337 336 337 337 337 337 337 336 336 336 336 335 336 336 336 337 337 337 337 336 336 336 336 336 335 335 334 334 334 334 335 334 334 334 333 333 332 331 330 332 334 334 333 331 330 331 332 332 331 330 331 331 331 330 330 331 331 331 331 331 330 329 329 328 328
330 331 332 333 333 334 334 334 334 334 335 336 337 338 338 338 338 337 336 337 337 336 336 336 336 337 336 337 337 336 336 336 336 336 335 335 336 337 337 336 336 336 336 336 336 335 334 335 334 334 334 333 334 334 334 333 332 330 329 330 332 333 335 333 330 331 332 333 332 330 331 331 331 331 331 330 331 331 331 330 330 330 330 328 327
328 328 329 330 330 330 331 332 332 332 332 333 335 336 337 337 338 338 337 335 335 335 335 335 335 335 335 336 336 335 335 335 336 335 335 335 335 336 336 337 336 336 336 336 337 336 335 335 335 334 334 333 333 332 333 333 331 330 329 329 331 333 335 332 331 332 331 332 333 331 332 332 331 331 331 330 331 331 330 330 330 330 330 329 327
326 326 327 327 327 328 328 329 329 329 330 331 332 333 334 335 335 335 334 334 334 334 334 334 333 334 334 334 335 335 334 334 335 335 334 334 335 335 336 336 337 336 336 335 337 337 336 336 335 335 335 334 333 332 331 332 331 330 328 329 331 332 333 331 333 335 333 331 332 332 333 332 331 331 331 330 330 330 331 330 330 330 331 330 327
325 325 326 326 325 326 326 326 326 327 328 328 329 331 331 331 332 331 330 331 331 332 332 332 332 333 333 333 333 334 333 334 334 335 335 335 334 334 335 336 336 336 335 335 335 335 335 335 334 334 334 333 333 332 332 332 331 330 330 330 330 330 330 331 333 334 334 334 332 332 333 332 331 331 331 331 330 331 331 330 330 330 331 330 329
324 324 324 325 325 324 324 324 324 325 326 326 327 328 328 328 329 328 328 327 328 328 330 330 331 331 332 332 332 332 332 333 333 334 334 334 333 333 334 334 335 336 335 335 335 334 334 334 334 334 334 333 333 333 332 332 331 331 331 331 331 331 330 330 330 331 334 335 332 331 332 332 331 331 331 331 331 331 331 330 330 330 331 330 330
323 323 323 324 324 323 323 323 323 323 324 325 325 326 326 326 326 325 325 324 325 326 327 328 328 329 329 329 330 331 331 332 332 333 333 333 333 332 333 333 334 334 334 334 335 335 334 333 333 333 333 333 333 333 332 331 331 330 331 331 331 331 330 330 330 329 331 333 334 333 332 331 332 331 330 331 331 331 330 330 330 329 330 330 330
322 322 322 323 323 322 322 322 323 322 322 322 323 323 323 324 323 323 322 322 323 324 325 325 325 326 326 326 328 329 330 331 331 332 331 331 332 332 332 332 333 332 333 334 333 333 333 332 332 331 330 331 331 331 331 330 330 330 330 330 329 329 330 330 330 329 329 330 332 332 330 330 331 331 331 331 331 331 331 330 329 329 330 330 330
321 321 321 321 321 321 321 321 322 321 321 321 322 321 321 322 322 322 321 321 322 322 322 322 322 324 324 325 326 325 326 327 328 328 328 328 329 330 331 332 332 332 332 332 332 331 331 331 331 331 331 330 329 330 330 329 329 329 329 330 329 328 329 330 330 330 330 330 331 331 329 329 330 330 330 331 331 331 330 330 329 329 329 329 330
Wind_Speed
17 18 19 18 18 17 17 18 17 18 16 15 15 14 14 13 14 15 18 21 22 22 23 22 21 21 22 23 23 22 21 21 22 21 21 20 20 19 18 17 16 16 16 16 16 16 15 14 14 13 13 14 15 15 16 16 16 16 15 16 17 17 17 17 16 15 15 16 17 17 16 15 14 15 17 17 17 17 17 18 18 18 18 17 17
20 20 19 19 18 18 18 18 18 18 17 15 15 14 13 13 14 15 18 21 22 22 22 21 21 22 22 23 23 22 21 21 21 20 20 19 19 18 17 17 16 15 16 16 16 15 15 14 13 13 13 14 15 16 16 17 17 16 16 16 17 18 18 17 16 14 15 17 18 17 17 16 15 16 17 17 17 17 17 16 17 18 18 17 16
23 21 19 19 18 19 18 18 18 18 17 16 15 14 13 14 14 15 18 21 22 21 21 20 21 22 22 22 22 21 20 20 20 20 19 19 18 18 17 17 16 15 15 15 15 15 15 14 14 13 13 15 16 15 16 17 17 16 16 17 17 19 18 18 18 16 16 17 18 18 17 17 16 17 18 17 17 17 16 15 16 17 17 16 16
25 22 20 20 19 19 19 19 18 18 17 16 15 14 13 14 14 15 18 20 21 21 20 20 21 21 21 21 20 20 20 19 19 19 18 18 18 17 16 16 15 15 15 15 15 15 15 15 14 14 14 16 16 14 15 16 16 16 16 16 17 18 18 19 20 19 18 19 19 19 18 18 17 17 18 18 18 17 16 16 16 17 17 17 16
27 22 21 21 20 20 19 20 18 18 17 16 15 13 13 13 13 15 18 20 20 20 20 20 20 20 20 20 20 20 20 19 19 18 18 18 17 16 16 16 15 15 14 14 14 14 14 14 14 14 15 17 16 14 14 14 15 15 14 15 15 17 18 19 20 18 18 18 18 18 18 18 17 17 17 16 16 16 16 16 16 17 16 15 15
27 23 23 21 21 20 20 20 18 18 17 16 15 13 13 13 13 15 18 20 20 19 19 20 19 19 18 19 19 19 19 19 19 18 18 18 18 16 15 15 15 14 14 14 14 13 13 13 13 14 16 17 16 14 13 13 12 13 13 13 12 13 14 15 16 16 16 16 16 17 17 17 18 17 16 15 15 15 16 16 16 16 15 14 14
27 26 23 22 22 20 20 19 19 19 18 17 15 13 13 13 13 15 17 20 19 18 19 19 18 18 17 18 18 18 19 19 18 18 18 18 17 15 14 14 14 13 13 13 13 12 11 11 11 11 13 14 14 13 12 11 10 11 11 11 9 8 8 7 10 12 13 14 15 15 16 17 17 16 14 14 15 16 16 15 14 15 14 13 14
26 26 24 23 21 20 20 19 20 19 19 17 15 14 13 13 13 14 17 19 19 18 19 18 17 17 17 18 18 17 17 18 17 17 17 16 15 14 13 12 12 12 12 11 11 9 8 8 9 10 10 10 11 10 9 8 8 7 7 7 6 4 2 3 8 10 10 12 13 13 16 17 17 16 14 15 16 16 15 14 14 14 13 12 13
25 25 24 23 21 20 20 20 21 20 20 17 15 14 13 13 14 15 16 18 18 18 18 17 16 16 17 17 17 17 16 16 17 16 16 15 14 12 11 10 10 10 9 9 8 7 7 8 9 9 8 8 8 9 8 7 7 6 6 6 6 5 2 7 12 12 11 12 12 14 17 17 17 16 16 16 16 15 14 14 14 13 12 11 12
26 26 25 23 22 21 21 21 21 21 19 17 16 14 13 14 15 15 16 17 17 18 18 17 16 16 17 16 16 16 15 15 15 15 14 14 12 11 10 9 9 9 9 8 7 7 8 9 9 8 7 8 9 9 9 8 7 7 7 7 8 6 8 12 15 14 12 12 12 13 15 15 16 16 16 15 15 15 14 14 13 12 12 11 11
27 27 25 24 23 21 22 21 21 20 19 17 16 14 14 14 16 16 16 17 16 16 18 18 17 16 16 16 15 15 14 13 13 13 12 11 10 10 9 9 8 9 9 8 7 7 8 10 10 8 10 12 12 11 10 9 8 8 8 10 9 10 14 15 15 15 13 11 11 12 12 13 14 15 16 15 15 15 13 13 13 12 11 11 11
27 26 25 24 23 22 21 21 20 19 18 17 16 15 15 15 16 16 17 17 16 17 18 18 17 17 16 15 15 15 14 13 12 11 10 9 9 9 9 8 8 8 9 8 8 7 7 10 10 10 13 15 14 12 10 10 9 9 10 11 10 13 15 15 14 14 12 11 12 11 11 12 14 15 15 14 14 14 12 11 11 10 10 11 12
26 25 24 24 22 21 21 20 20 19 18 17 16 16 16 16 16 16 17 18 18 18 18 18 17 17 16 15 14 14 13 12 11 10 8 8 8 8 8 8 8 7 8 8 8 7 7 10 11 13 16 16 15 13 11 10 9 10 11 11 12 14 14 13 12 12 11 11 11 11 11 12 13 13 13 14 14 13 11 10 10 9 10 12 12
26 25 24 23 23 21 20 20 19 19 17 16 16 16 15 15 15 17 19 19 19 18 18 17 16 16 16 14 13 13 12 10 10 9 8 7 6 6 7 8 7 7 8 8 8 7 7 9 11 14 17 16 15 13 11 9 8 10 11 10 12 15 14 12 10 9 9 11 12 12 12 13 13 12 13 14 13 12 11 11 11 11 11 12 12
26 27 25 24 23 21 20 20 19 18 16 15 15 15 14 14 15 18 19 19 18 18 18 18 16 15 15 14 13 12 10 9 9 8 7 6 5 6 6 7 7 7 8 8 8 7 7 8 10 13 16 16 14 12 11 9 9 11 12 10 13 16 13 11 9 8 8 11 12 13 13 13 12 12 13 12 12 11 11 11 12 11 10 12 11
25 27 26 24 23 21 19 19 18 16 15 14 14 14 13 14 16 18 19 19 18 17 17 17 17 16 15 14 12 11 10 9 8 7 7 6 6 6 6 6 6 7 7 7 7 8 8 7 9 13 15 15 14 12 10 9 10 13 12 10 14 15 13 10 8 8 9 11 12 12 12 12 11 11 11 11 11 11 11 11 11 10 11 12 11
26 27 26 24 22 21 19 18 18 16 15 14 13 13 13 14 15 16 18 18 18 17 17 17 17 16 15 14 13 11 10 9 8 7 7 7 6 6 7 6 5 6 6 6 7 8 8 7 9 14 16 14 13 11 9 10 11 13 11 10 14 15 12 9 7 7 7 9 11 12 13 11 10 10 10 10 10 10 11 10 9 9 11 12 11
25 24 24 23 21 20 19 18 17 16 15 14 13 13 14 14 13 14 16 17 17 16 16 17 16 16 15 14 13 11 10 8 7 7 7 7 5 5 6 6 5 5 5 5 6 7 8 8 9 14 17 14 13 10 9 10 10 12 11 10 12 13 11 7 5 6 6 7 9 11 12 11 10 9 8 9 9 8 9 9 9 10 11 11 11
24 23 22 21 19 18 17 17 16 15 14 13 13 13 13 13 13 14 15 16 16 15 15 15 16 16 15 13 12 11 9 7 6 5 6 6 4 4 5 6 5 4 4 4 5 5 8 9 9 14 18 16 13 10 9 8 10 13 12 9 11 11 9 6 4 4 4 5 7 9 11 11 9 8 8 7 8 8 8 9 10 11 11 10 11
22 22 22 20 19 18 17 16 15 14 13 13 13 13 13 12 13 14 14 14 14 12 12 12 13 14 13 11 10 9 7 6 5 4 4 5 4 3 4 4 4 4 4 4 4 4 6 8 10 13 17 17 13 11 9 8 10 12 11 7 10 10 8 5 3 3 3 4 6 8 11 12 9 7 8 7 8 8 8 9 9 9 10 10 11
21 20 20 20 19 18 17 16 15 14 12 12 13 13 12 11 12 12 12 12 11 11 10 10 10 10 11 10 9 8 7 6 5 4 3 4 5 4 5 4 3 3 3 3 3 4 5 7 10 12 17 17 13 11 9 8 9 11 10 7 8 10 7 5 3 3 2 3 5 7 10 11 9 7 8 7 7 7 7 8 8 9 10 10 10
20 19 18 18 18 17 16 15 14 13 12 12 13 13 12 12 12 12 11 11 10 10 10 9 8 9 9 9 8 7 7 6 5 4 3 4 5 6 6 6 4 2 2 2 2 3 5 6 9 12 17 18 14 11 9 8 9 10 9 6 5 8 7 4 3 2 2 2 4 7 10 10 8 7 8 8 7 6 7 8 8 9 10 10 10
20 20 18 16 17 17 15 15 14 12 12 12 13 13 12 12 13 13 12 11 10 10 10 9 9 9 9 8 7 6 6 6 5 4 4 5 6 7 7 7 6 4 2 2 2 3 4 4 7 12 16 18 15 12 9 8 8 9 6 4 3 7 7 4 3 1 1 1 3 7 10 9 8 7 7 8 7 7 7 8 8 10 10 10 10
20 21 19 17 16 16 15 15 14 12 13 14 14 13 13 12 12 12 12 11 10 10 10 10 9 9 9 8 6 5 4 4 4 4 5 6 6 7 7 8 7 6 4 2 2 3 4 5 6 12 17 18 16 12 9 7 6 7 3 4 1 6 6 4 3 1 1 1 3 6 9 9 9 8 7 7 8 8 8 9 9 10 10 10 10
21 20 20 18 17 16 16 15 13 12 13 15 16 14 13 13 12 12 12 11 10 10 10 9 9 9 9 8 8 6 5 5 5 5 5 6 5 6 7 8 9 8 6 4 3 3 4 5 7 13 18 19 17 12 8 6 5 5 0 5 1 4 6 6 4 2 0 1 2 6 9 9 9 8 8 8 8 8 9 9 10 10 10 10 10
20 19 19 19 17 17 16 15 14 13 13 16 16 15 15 14 13 13 12 11 11 12 11 10 9 9 8 8 8 8 7 7 7 7 6 6 5 4 6 8 10 10 8 6 4 4 5 5 8 13 16 16 15 9 4 3 3 3 4 8 5 5 7 8 6 3 1 0 2 5 8 9 10 9 8 9 9 9 9 9 10 10 10 9 9
20 19 20 20 19 19 18 17 15 13 13 15 16 16 15 14 13 12 12 12 12 13 12 12 10 9 9 9 10 10 10 9 9 9 8 7 6 5 5 7 9 11 10 7 6 5 6 6 7 10 12 12 10 7 4 4 5 5 7 12 10 8 9 9 7 4 2 0 2 5 8 8 10 10 9 9 10 10 10 10 10 10 10 9 9
21 19 20 21 21 21 20 18 15 13 13 15 16 16 14 13 12 12 12 11 12 13 12 12 11 11 12 12 13 12 11 9 10 10 9 8 7 6 5 6 9 11 11 9 7 6 6 7 7 8 9 8 7 6 6 7 9 9 10 14 13 11 11 10 8 5 3 1 2 4 6 7 10 10 10 10 10 10 10 10 10 10 10 10 9
21 20 20 21 21 21 20 19 16 15 14 15 15 14 13 12 11 11 10 10 11 11 12 12 13 13 14 15 14 13 12 10 9 9 9 9 8 8 6 6 8 11 13 11 9 7 7 7 8 8 9 9 7 7 8 9 11 9 10 12 13 13 13 11 9 6 4 2 3 3 5 6 9 11 10 10 10 11 11 11 10 10 10 10 10
21 19 19 20 21 20 20 19 18 16 15 14 13 12 12 11 11 10 10 11 10 11 12 13 14 15 15 15 14 13 12 10 9 8 9 10 10 11 9 8 9 12 13 13 11 10 9 9 9 9 10 10 10 10 11 11 10 6 10 10 11 11 11 11 9 7 5 4 3 3 4 6 9 11 12 11 10 11 11 10 10 10 10 10 11
20 19 19 19 20 20 19 19 18 16 14 12 12 11 11 11 11 11 11 11 11 12 13 13 14 15 15 15 14 13 13 11 10 9 10 10 11 12 12 11 10 12 14 14 13 12 12 12 12 12 12 12 12 13 13 13 9 6 10 9 8 8 9 11 9 8 7 6 5 5 5 7 8 11 13 12 10 11 11 10 9 9 9 9 10
20 20 18 17 18 18 18 19 18 16 13 11 11 11 11 11 11 12 12 11 11 12 13 13 13 13 13 13 13 13 13 13 12 11 11 11 12 13 14 14 13 13 14 14 14 14 14 14 15 14 14 14 14 15 15 15 10 7 10 8 7 8 9 11 11 9 9 8 6 6 7 8 9 11 12 12 11 11 10 10 10 10 10 9 10
20 19 17 16 15 16 18 18 16 15 13 11 10 11 12 11 11 12 13 12 12 12 11 10 10 10 10 10 11 12 12 12 12 12 12 12 13 14 15 16 16 15 15 15 15 16 16 16 16 15 13 13 16 17 17 15 11 9 10 8 7 8 10 11 12 12 11 10 9 7 8 9 11 12 13 14 13 12 10 10 10 10 10 10 9
18 18 16 14 13 14 16 17 15 12 11 10 11 12 12 11 11 11 11 11 11 12 10 8 8 8 9 10 10 11 11 11 12 12 13 13 13 13 14 15 15 16 17 17 17 18 19 18 18 17 15 14 15 16 16 15 13 12 12 11 9 7 9 11 13 14 13 12 10 8 8 9 11 13 14 15 14 13 13 12 11 10 10 10 10
16 16 14 13 12 11 13 15 14 11 11 11 11 10 10 9 8 8 9 10 10 10 9 8 8 8 9 9 9 10 10 10 11 12 13 14 14 14 14 13 13 15 17 18 18 19 20 20 20 19 18 16 15 16 16 15 15 14 13 13 12 10 9 11 13 14 14 14 12 9 8 9 10 13 14 15 15 14 15 14 13 11 10 11 11
14 14 13 12 11 10 10 12 13 11 10 10 9 8 7 7 7 8 8 9 9 9 10 9 8 8 9 9 9 10 10 10 11 12 13 14 15 15 14 13 13 14 16 17 18 19 19 20 20 20 20 18 17 16 16 15 15 15 13 12 13 13 11 11 12 13 14 16 14 11 10 9 11 13 14 15 15 16 16 15 14 12 11 11 12
12 12 12 12 11 10 11 11 12 12 10 10 9 7 7 8 8 9 9 9 10 10 10 9 9 9 10 10 10 11 11 11 11 12 13 14 14 15 15 14 14 14 15 16 17 18 19 19 19 19 19 18 18 17 16 15 16 15 14 13 13 14 13 12 12 12 14 17 17 14 12 11 12 14 15 14 15 17 18 17 15 13 12 12 12
12 12 11 11 10 11 11 11 12 12 10 9 9 8 9 10 10 9 8 9 10 10 10 11 12 12 13 12 12 13 12 12 12 12 13 14 14 15 15 14 15 16 16 17 17 18 18 19 19 19 18 17 18 18 17 16 16 16 16 15 15 15 14 14 14 13 14 17 19 17 14 13 13 14 15 14 14 16 19 19 17 15 14 14 13
12 11 10 10 9 9 9 8 9 8 7 7 8 8 8 10 10 10 8 9 10 11 11 13 14 14 15 15 15 15 14 13 13 13 14 15 16 16 16 15 15 17 18 19 19 19 19 19 19 19 18 18 18 19 18 17 15 16 16 16 17 17 16 15 15 15 15 17 20 19 16 15 15 16 16 15 15 16 18 20 19 17 17 16 15
14 12 12 11 10 10 9 9 8 6 4 4 4 6 7 7 9 10 9 8 9 10 11 12 13 14 14 14 15 15 15 14 14 15 16 17 18 18 18 17 16 17 19 20 20 20 20 19 19 19 19 19 18 17 18 17 15 15 15 16 17 17 17 16 16 17 17 17 20 21 20 18 17 17 17 17 16 17 18 20 20 20 18 18 17
17 16 15 14 13 12 12 13 12 10 8 4 3 4 4 4 5 9 10 8 8 9 9 9 10 11 11 12 13 14 15 15 15 16 17 18 19 20 20 19 19 19 20 21 21 21 20 20 19 19 19 19 19 18 17 16 14 13 13 14 17 18 18 18 18 19 19 19 20 21 22 22 21 20 19 18 18 18 18 20 21 21 20 19 19
18 18 17 16 14 13 13 14 13 12 11 8 6 6 5 3 1 5 9 10 9 8 8 7 8 8 9 11 13 14 15 15 15 16 17 18 20 21 21 20 20 20 21 21 21 22 21 20 20 19 20 20 20 18 17 15 13 12 9 7 10 14 17 19 20 21 21 21 21 21 23 25 25 23 21 20 20 20 20 20 21 21 21 21 21
17 18 17 16 15 14 14 14 14 13 12 10 7 7 6 4 3 1 5 9 9 9 8 8 8 9 10 11 12 12 13 13 13 14 16 18 20 22 22 22 21 21 22 22 22 22 22 22 21 21 21 20 19 18 18 17 15 10 4 3 3 4 8 15 20 23 23 23 23 23 22 25 28 26 24 23 22 22 21 21 21 22 22 22 22
18 18 17 17 15 15 14 14 14 14 13 11 9 7 5 4 5 6 3 5 8 9 10 9 8 8 10 10 10 11 13 12 12 14 16 18 20 21 22 23 22 22 22 22 23 23 23 24 23 23 22 19 18 19 20 21 19 11 3 2 2 1 3 7 13 21 25 24 24 25 23 24 29 29 27 26 25 23 24 23 22 22 23 23 23
18 18 17 17 15 14 13 13 13 13 13 12 10 8 6 4 5 7 9 7 5 9 12 12 10 10 10 10 10 11 12 12 13 15 16 16 17 19 22 23 23 23 23 23 24 25 24 24 24 24 22 19 19 21 21 22 22 19 13 5 1 1 3 3 5 12 21 25 26 26 24 23 27 31 30 29 27 25 25 25 24 23 23 23 23
17 17 17 16 15 14 13 13 12 12 12 12 11 10 10 10 10 11 12 12 10 11 12 11 12 12 12 11 10 11 12 13 15 15 16 16 17 18 20 23 25 24 23 23 24 24 25 24 24 23 22 22 23 21 21 23 23 23 24 20 14 9 4 2 3 4 10 20 26 27 26 24 25 30 31 29 28 28 27 27 25 24 23 24 24
15 15 16 15 14 14 13 13 13 12 12 12 11 12 13 14 14 14 15 15 13 13 13 12 13 12 12 12 11 12 12 12 14 15 15 16 17 17 18 20 23 24 23 23 24 24 25 25 25 24 24 25 25 23 23 24 22 22 26 28 26 21 13 7 5 3 3 9 18 24 26 25 24 26 29 29 28 28 29 28 26 25 25 24 24
14 15 15 15 14 14 13 12 13 13 12 12 12 13 14 15 15 14 15 15 14 14 14 14 15 14 14 16 16 17 15 11 12 13 13 14 15 16 17 18 20 21 22 24 25 25 25 25 26 26 25 25 26 26 26 24 21 22 24 27 29 28 23 17 13 9 3 2 7 14 21 25 25 25 26 27 29 29 29 29 27 26 26 26 26
15 14 14 13 13 13 13 13 14 14 13 12 12 12 13 14 15 15 15 15 14 13 13 14 15 14 15 16 16 17 16 14 13 13 14 15 15 16 16 17 18 19 21 23 25 26 26 25 26 26 25 27 28 27 27 27 26 25 24 24 25 26 24 22 19 13 7 5 4 4 11 17 20 25 28 27 28 30 30 29 28 28 27 28 29
13 13 13 12 12 13 13 15 15 15 15 13 12 13 12 13 15 16 16 15 14 14 14 15 16 15 15 16 16 16 15 15 14 14 17 17 15 15 16 15 16 18 21 22 24 26 26 26 26 26 25 26 27 27 27 29 30 29 28 24 20 19 19 18 18 16 11 8 6 4 9 12 12 21 30 31 30 30 31 30 29 29 29 29 31
14 14 14 14 14 14 14 16 15 15 16 15 15 16 15 14 15 16 17 16 15 15 15 16 16 15 16 17 17 16 15 15 13 14 17 18 17 16 15 15 15 17 19 20 22 23 25 26 26 26 26 25 25 25 26 29 31 30 30 27 22 22 22 18 19 21 15 9 8 5 8 14 14 18 26 31 33 32 30 31 30 30 30 31 33
Wind_Direction
134 136 140 145 141 140 136 140 142 141 137 133 127 118 109 103 102 99 106 112 112 110 108 108 105 103 102 102 99 98 98 98 99 97 96 95 94 93 93 93 92 91 90 88 86 85 85 86 86 89 92 94 95 95 96 95 94 93 92 92 90 87 84 81 82 85 88 89 86 83 84 83 78 75 78 83 84 83 84 84 86 86 88 90 86
139 139 142 144 141 139 135 138 141 141 138 135 129 119 111 106 103 100 110 114 113 113 112 110 107 106 104 103 101 100 99 98 99 98 96 94 94 94 94 93 92 90 89 87 86 84 84 84 84 88 91 96 98 100 100 99 98 95 94 92 90 85 79 76 76 82 88 89 89 89 86 84 82 82 82 85 85 83 84 84 81 80 86 92 89
135 139 140 141 138 136 134 136 140 141 141 137 130 122 114 111 105 104 114 117 115 115 115 111 109 107 105 103 102 101 99 98 98 98 96 95 94 92 92 91 90 89 88 87 87 85 85 84 83 87 92 98 100 100 100 100 99 99 98 97 95 89 80 77 78 82 89 89 88 88 88 88 87 85 83 83 82 81 83 85 82 77 78 82 82
132 135 137 139 136 133 132 135 140 144 143 139 132 124 118 116 109 109 118 119 116 116 115 111 110 107 104 103 102 102 101 99 98 97 97 96 94 92 91 90 90 88 87 88 88 87 87 85 84 86 93 101 102 98 97 98 99 100 101 102 103 97 83 78 84 84 86 89 89 91 91 92 91 90 89 85 81 80 80 81 81 79 75 74 76
129 133 138 139 135 132 132 135 142 146 145 140 135 127 124 121 113 114 122 121 117 117 114 111 108 105 105 104 104 105 104 103 101 100 99 99 96 94 93 92 91 88 88 88 90 90 89 88 87 89 97 105 104 98 96 97 99 101 102 107 111 107 93 82 84 87 89 94 97 97 96 96 95 94 92 89 85 82 79 77 77 78 77 77 79
130 134 138 137 134 132 133 137 143 147 147 143 138 132 129 125 118 118 124 124 120 117 114 112 108 106 107 107 107 108 107 108 107 104 100 98 96 93 92 91 89 87 87 87 89 90 90 91 92 95 102 110 109 104 100 98 100 102 106 110 112 113 106 89 81 88 98 100 102 99 98 97 94 91 88 86 86 85 83 82 82 82 78 79 82
132 134 138 137 135 134 136 139 143 148 148 147 142 137 134 129 124 123 129 129 124 119 117 115 111 110 110 110 110 110 111 111 111 109 105 101 99 96 94 92 90 87 86 86 88 90 93 95 95 100 107 116 118 113 108 107 106 105 109 110 111 113 114 100 79 89 104 104 105 104 102 99 95 91 85 84 87 88 87 86 86 85 79 76 81
131 134 138 137 136 137 139 142 146 151 151 151 147 142 138 134 131 130 134 133 127 123 121 119 116 115 114 114 114 114 115 113 115 114 111 108 105 101 99 98 99 99 94 91 92 93 94 94 96 105 115 126 132 128 123 118 113 108 109 104 102 89 78 124 106 106 114 110 110 109 106 102 98 93 88 88 90 90 90 89 87 86 82 79 79
131 136 138 136 137 140 143 147 150 154 155 154 151 147 143 138 138 137 137 136 130 126 124 123 123 123 119 118 118 119 118 117 116 114 112 110 107 103 101 101 103 103 97 93 92 88 94 97 98 107 117 129 140 142 139 132 124 113 103 85 63 49 79 136 131 130 124 116 117 113 108 104 100 94 93 95 93 95 94 91 91 87 87 89 84
136 139 139 138 141 145 148 150 152 155 155 155 155 151 146 143 145 143 143 141 134 131 131 129 129 128 126 124 123 124 122 122 120 116 113 109 105 102 103 105 107 104 96 93 91 88 98 100 98 105 113 123 133 139 140 135 124 108 87 63 55 80 122 138 141 139 129 122 122 114 110 108 103 98 98 99 97 96 94 94 96 92 90 90 87
141 142 141 142 145 148 148 151 153 155 156 158 158 154 149 148 149 149 150 146 136 136 140 138 135 134 133 131 131 130 128 127 123 120 114 107 100 97 103 107 109 109 103 102 98 92 94 96 99 110 119 126 131 134 135 128 113 93 67 53 69 109 128 140 144 137 132 130 127 117 112 108 104 104 104 103 103 100 97 101 100 95 91 87 84
145 145 144 145 146 147 148 152 154 156 160 161 162 159 154 152 152 155 156 150 142 143 145 144 144 141 137 137 139 136 134 132 124 120 112 102 93 90 100 103 105 107 104 103 97 89 88 94 104 122 130 133 135 135 132 120 101 76 58 59 91 125 135 143 143 135 133 131 132 126 115 107 105 109 112 110 109 107 103 105 102 97 92 89 88
143 144 144 144 146 149 150 153 157 160 163 164 165 162 157 154 155 158 159 155 150 150 150 150 152 149 141 140 144 141 140 136 126 119 109 96 83 85 96 100 104 103 98 94 87 80 81 95 113 134 139 140 141 138 129 111 88 68 61 72 108 135 144 145 140 134 130 129 131 127 118 112 111 112 114 112 110 109 106 106 102 99 99 96 94
143 145 146 147 149 152 154 157 160 161 164 165 163 159 157 155 156 160 160 158 156 156 156 156 156 153 149 147 149 148 147 141 131 122 113 100 85 88 98 100 105 103 95 89 84 76 74 94 121 143 147 147 147 139 124 105 84 69 67 82 121 142 149 145 138 132 128 129 127 124 121 115 114 112 111 111 109 110 108 107 102 103 107 99 96
147 149 149 150 152 155 157 158 159 161 164 161 156 156 157 155 154 158 161 162 163 163 162 162 159 158 158 156 156 154 153 147 140 134 124 114 104 106 108 103 107 107 97 89 84 73 69 92 126 149 155 154 150 139 124 107 86 73 70 92 133 149 154 149 140 135 134 134 130 127 122 114 113 111 111 112 110 110 106 105 104 106 108 99 95
150 151 150 152 154 155 155 156 159 161 160 155 153 154 157 155 153 157 163 166 169 171 170 168 165 164 165 163 163 162 160 159 154 149 138 128 125 127 124 115 113 109 101 91 80 68 67 93 130 153 160 160 153 140 125 106 89 76 70 100 139 154 161 157 145 137 136 137 135 126 118 115 114 112 113 112 109 107 102 104 107 106 104 100 98
150 151 150 151 154 154 153 156 158 157 154 150 152 155 156 155 153 157 165 171 175 178 178 174 171 170 171 170 171 171 171 175 173 164 151 140 138 143 138 130 121 111 106 92 78 68 70 95 133 155 164 166 158 143 125 107 91 74 71 107 142 157 161 156 143 131 133 141 138 126 121 118 114 112 112 110 109 110 109 111 111 107 105 103 99
146 147 147 148 152 153 154 155 154 151 149 148 152 155 155 155 153 156 163 172 178 181 184 181 179 177 178 178 178 179 179 184 183 170 155 147 147 156 153 142 133 119 111 94 81 71 75 98 133 158 167 169 162 148 127 111 90 73 76 110 142 156 159 155 137 121 125 139 143 134 127 123 119 115 111 110 111 113 116 114 109 105 104 104 101
142 144 144 148 151 151 150 150 151 148 149 151 152 153 156 157 153 156 161 167 175 179 184 185 187 186 185 183 184 186 190 197 192 176 159 154 156 169 169 153 142 129 118 104 90 71 78 104 133 158 168 171 165 151 133 114 91 80 78 108 143 158 163 158 134 121 121 131 143 137 128 124 125 122 117 116 114 112 114 111 110 109 106 104 104
141 145 146 150 151 149 149 150 153 153 154 154 154 155 156 155 155 160 161 164 169 170 173 180 188 191 191 190 192 194 201 210 212 205 175 166 173 187 194 169 151 137 127 112 97 72 74 105 131 156 169 171 164 151 136 114 96 84 74 102 148 162 163 158 137 125 121 130 147 143 134 128 128 128 122 120 118 117 115 113 113 115 110 105 106
140 145 149 152 153 152 152 155 159 159 157 155 156 155 154 157 159 162 162 166 167 164 161 165 174 183 190 195 198 196 193 199 212 219 197 188 193 197 209 195 168 149 135 116 97 69 68 103 130 153 168 169 161 151 138 120 103 85 74 91 145 161 161 160 142 127 126 142 157 149 141 134 134 134 128 128 129 126 119 117 116 116 114 110 108
145 146 150 154 156 155 154 157 159 161 157 154 155 152 158 166 163 164 168 170 168 166 164 160 165 174 186 192 193 187 177 176 183 194 192 201 206 205 211 206 191 178 157 131 105 74 66 99 131 151 165 166 160 152 139 128 114 96 80 74 135 163 164 167 160 132 116 146 164 150 142 140 140 138 135 136 134 129 122 123 122 120 118 115 112
147 148 153 155 154 152 151 154 156 160 160 156 156 157 169 173 167 169 175 174 170 170 170 168 173 183 191 193 194 190 181 168 155 156 168 191 214 216 212 209 203 199 197 167 128 90 76 97 133 150 162 164 157 148 138 133 128 116 88 52 139 176 174 179 178 138 70 125 167 154 148 146 146 140 139 140 138 136 131 130 129 125 124 121 119
143 149 154 154 149 146 146 150 151 156 161 160 161 165 173 175 172 176 181 179 177 178 179 179 183 194 198 199 204 207 207 191 173 165 156 169 209 226 223 218 211 207 216 213 161 119 101 104 133 148 154 157 151 139 132 135 142 136 90 19 136 187 190 201 205 175 42 86 157 156 154 151 150 150 151 152 148 145 141 137 134 131 128 126 124
141 147 153 154 151 149 149 152 153 155 160 163 165 169 172 175 178 180 184 184 189 190 189 193 196 201 201 205 215 222 226 221 220 208 174 166 187 221 226 224 219 210 213 221 194 161 135 117 133 149 150 150 148 141 133 135 145 145 280 329 299 206 209 212 213 205 51 70 164 170 168 162 158 160 161 160 155 152 150 145 140 137 133 131 127
140 144 151 156 162 162 159 160 163 161 162 165 166 171 173 176 180 181 183 185 193 196 196 201 205 209 209 213 218 225 231 231 231 230 218 193 187 218 227 226 223 215 213 220 209 188 177 151 143 152 156 157 159 161 166 175 176 172 270 302 290 242 226 216 213 217 206 93 194 188 183 174 166 167 166 163 161 159 156 151 146 142 138 135 132
142 143 150 158 167 171 171 170 171 167 164 167 170 174 175 177 181 183 186 187 193 198 202 207 210 217 222 225 225 229 235 238 234 233 237 216 205 227 235 229 222 217 219 225 223 206 205 196 173 168 171 177 183 201 243 263 276 267 273 288 279 247 233 222 216 217 204 205 222 203 200 188 172 170 171 168 167 165 160 155 152 149 144 140 138
145 148 155 160 166 171 174 176 178 176 169 170 173 177 177 179 186 188 190 192 195 200 208 214 217 223 229 233 233 235 236 236 234 234 242 240 233 237 242 237 220 214 218 226 232 221 223 227 221 209 204 214 219 234 266 289 297 284 268 274 264 234 226 222 215 215 208 238 252 221 213 196 179 175 176 177 174 168 164 162 159 155 148 145 145
151 156 162 163 168 171 175 181 185 184 177 175 177 180 179 184 193 196 198 201 204 208 217 225 229 231 233 235 236 238 237 233 235 238 246 254 257 256 255 243 224 216 218 223 229 226 228 235 246 249 246 249 255 270 285 303 305 277 243 249 243 223 220 220 216 214 213 248 267 238 223 197 183 182 179 181 180 172 169 169 166 159 153 152 151
157 162 168 170 173 176 181 185 188 189 185 182 184 188 189 194 202 204 209 212 216 222 228 236 240 240 240 239 238 239 240 241 246 250 251 256 260 261 258 246 230 222 221 225 228 232 234 236 248 260 263 265 273 283 286 300 301 238 203 215 219 217 220 221 219 220 224 242 253 243 232 206 195 191 185 183 182 178 177 175 169 161 160 161 157
159 166 174 177 178 181 186 187 188 190 189 191 194 200 201 206 214 216 223 227 231 236 239 245 245 242 243 245 244 242 246 251 254 259 257 256 256 257 258 251 237 225 224 228 230 237 243 245 251 258 265 269 277 281 281 291 289 211 197 210 214 218 225 223 220 229 237 238 246 245 234 219 210 201 190 185 185 184 181 177 174 169 171 170 164
163 170 176 179 179 182 187 188 189 191 192 199 205 210 211 215 222 225 232 237 239 241 241 244 242 238 242 246 247 248 253 257 258 261 260 258 256 255 256 254 248 236 229 229 231 236 242 248 254 259 265 270 273 275 277 283 281 232 212 217 225 228 233 231 223 233 245 240 241 242 233 223 214 203 188 183 187 187 183 181 182 180 182 180 175
169 172 176 177 177 180 186 189 192 195 194 201 210 215 218 222 228 229 234 237 236 236 235 240 242 239 242 247 249 253 258 262 264 265 261 259 259 256 253 252 252 247 238 235 236 238 242 247 251 254 259 265 265 266 273 278 278 254 222 209 214 219 227 233 229 233 243 239 236 236 232 224 215 205 192 188 188 182 184 191 190 190 190 188 183
167 172 178 179 179 179 185 189 190 191 189 195 208 214 216 219 224 226 227 228 229 230 234 243 248 244 245 248 251 257 262 264 266 266 262 257 257 256 253 254 254 251 246 243 244 245 244 245 246 247 252 260 260 261 268 274 274 259 230 216 219 216 217 229 232 230 234 234 231 230 226 221 217 210 198 191 186 180 188 198 196 195 194 190 183
165 168 173 173 174 172 177 183 180 179 179 189 201 204 208 212 217 221 221 225 229 232 236 246 252 251 250 253 258 262 265 266 266 266 262 258 258 257 257 262 261 253 249 248 249 248 246 246 246 246 249 255 260 262 265 270 270 257 238 228 227 227 225 231 234 229 228 226 224 224 218 217 218 211 203 193 186 184 193 201 197 192 193 191 181
160 161 162 160 161 159 162 166 164 165 171 184 188 184 200 211 210 215 223 229 233 236 239 243 248 251 253 257 262 265 267 267 266 265 262 260 262 264 264 269 268 257 251 251 251 248 247 248 248 247 247 251 258 262 263 265 265 255 247 242 229 228 233 236 237 231 225 222 221 221 215 218 219 213 209 201 193 190 195 200 194 188 192 192 183
151 151 151 149 149 150 154 155 154 161 173 184 178 174 203 219 217 218 226 235 239 243 246 250 253 252 254 258 260 264 268 269 268 267 265 264 267 272 274 274 271 263 258 255 253 250 249 250 249 246 245 250 257 259 260 258 258 252 250 252 239 230 232 236 239 234 226 223 223 221 215 219 220 214 214 210 201 195 195 198 197 197 201 196 188
151 149 148 148 149 150 154 153 153 164 180 189 178 177 210 229 228 223 228 239 245 248 253 260 263 257 253 258 263 263 265 270 273 272 269 269 271 275 276 273 269 266 264 262 257 252 250 251 250 248 247 253 259 261 261 256 253 251 249 251 246 237 238 240 238 233 227 226 225 222 220 222 221 217 215 213 208 202 198 200 204 208 209 204 197
141 140 136 139 148 150 152 149 154 169 184 197 183 177 210 238 240 234 236 243 246 250 255 259 261 259 255 259 263 263 264 267 272 274 273 271 271 272 273 273 269 266 265 264 261 255 251 249 249 249 251 255 260 263 262 256 250 247 246 247 245 242 244 243 238 232 230 229 227 224 223 224 223 220 219 215 212 210 204 203 206 210 214 214 206
116 119 115 114 117 122 122 112 122 142 158 196 182 165 199 240 259 262 267 264 260 265 268 266 263 259 257 262 265 264 263 264 268 272 272 270 268 270 274 276 275 271 266 263 262 260 256 253 249 250 254 256 259 263 260 252 246 244 245 246 247 247 247 246 241 233 229 228 225 226 226 225 226 224 224 221 216 216 212 209 211 212 215 218 214
99 105 102 98 97 101 101 90 95 108 105 106 87 93 154 212 268 289 301 297 285 283 277 277 277 266 261 271 277 273 267 265 267 268 269 269 268 271 274 276 278 276 271 267 265 265 265 261 256 254 256 257 258 259 255 247 243 243 245 249 250 250 247 245 243 236 230 226 222 228 231 228 228 228 228 227 222 220 219 216 217 218 218 218 218
83 92 91 88 91 90 88 82 83 91 88 90 92 77 84 116 235 301 311 307 303 301 290 298 308 295 281 285 287 281 276 273 269 267 267 270 271 272 273 275 276 276 276 273 269 267 268 265 261 258 256 257 258 257 249 238 235 237 242 255 258 255 249 243 243 240 234 227 221 227 234 232 231 231 229 229 227 225 224 222 222 224 224 222 221
77 85 85 83 88 82 81 80 76 78 78 82 89 81 76 80 79 349 300 299 308 312 299 300 309 303 296 296 291 286 288 287 280 272 269 272 273 273 274 275 275 276 276 274 271 270 270 267 261 258 256 255 256 256 251 241 234 232 246 273 258 255 256 246 243 241 236 231 227 229 236 236 233 233 230 229 229 228 228 227 225 227 229 227 225
73 76 78 78 79 75 75 75 71 70 71 75 79 83 89 89 84 80 52 314 310 316 310 303 306 302 294 297 299 300 303 301 293 282 279 279 277 273 273 274 274 275 274 273 273 273 272 269 263 259 256 253 254 255 254 247 234 223 220 290 277 208 263 250 242 244 239 234 232 231 236 239 232 229 229 228 229 230 230 229 227 228 230 230 228
68 68 72 72 69 68 68 66 65 63 62 64 68 74 78 75 77 75 68 55 16 349 336 325 326 318 305 307 311 314 315 307 300 296 295 289 279 274 273 274 275 274 273 272 273 275 275 271 267 262 257 254 258 257 254 249 242 234 225 224 250 228 262 249 237 251 241 234 234 230 233 238 231 227 228 229 229 229 230 230 229 228 229 230 229
67 66 69 69 63 61 59 58 58 54 52 54 54 62 66 61 61 59 53 52 45 28 12 356 345 335 326 324 320 320 319 309 305 307 305 296 286 281 277 277 276 276 278 277 275 275 275 274 271 265 261 259 260 257 253 253 252 245 234 230 234 234 241 199 186 269 250 235 234 231 231 233 230 227 228 227 227 227 229 230 230 229 228 229 228
69 69 67 65 61 58 56 56 56 53 50 49 48 54 58 59 62 60 51 46 42 36 37 35 22 10 3 1 358 352 342 320 308 309 308 306 300 292 285 282 281 282 285 282 278 277 275 275 273 267 263 260 256 253 255 256 253 246 240 237 239 241 244 234 215 252 270 241 234 231 231 229 225 226 226 225 225 225 227 228 230 231 229 229 227
73 72 68 64 60 54 52 52 53 53 50 49 47 48 50 52 56 55 49 44 39 35 38 41 41 41 34 24 19 14 7 349 328 323 323 323 318 308 298 292 289 289 288 281 279 280 279 279 278 275 270 263 256 252 252 253 247 244 245 243 241 242 243 241 237 232 221 243 236 232 233 230 227 227 226 227 226 225 227 227 229 232 231 231 228
77 76 70 66 61 55 56 54 53 52 48 46 44 44 45 45 46 46 42 37 32 31 32 33 35 39 37 31 24 18 11 358 346 347 348 339 328 324 316 306 299 293 288 283 281 284 285 284 279 277 276 272 266 256 250 250 247 244 245 244 241 242 244 242 240 240 231 225 230 227 227 226 230 231 230 229 227 227 228 229 231 233 234 234 230
78 73 69 67 70 67 64 63 62 58 52 50 49 47 44 42 43 42 38 33 27 23 23 26 27 24 25 28 30 27 20 8 353 353 2 358 343 333 326 319 311 299 290 287 286 287 287 287 283 280 279 277 273 266 260 257 252 246 243 241 235 236 243 245 242 241 237 229 230 232 216 211 221 231 230 229 228 228 228 230 233 233 233 235 232
72 71 74 75 77 76 72 70 68 61 56 60 62 58 55 54 52 47 44 40 33 26 21 22 23 20 19 22 26 27 27 23 9 358 4 7 359 349 342 335 324 311 299 290 289 292 290 291 290 286 282 278 276 275 273 266 255 245 241 238 231 227 230 235 235 229 224 224 226 234 223 214 219 229 230 229 228 228 228 229 232 231 231 233 231